Pasco, WA
on Sunday, February 3, 2013

Sunday
Previous Day Next Day
Daily Summary
 ActualAverageRecord
Temperature
Mean Temperature °F 37°F  
Max Temperature 37°F 46°F 59°F (1962)
Min Temperature 26°F 29°F -17°F (1996)
Degree Days
Heating Degree Days 33 28  
Month to date heating degree days 84 84  
Since 1 July heating degree days 2995 3235  
Cooling Degree Days 0 0  
Month to date cooling degree days 0 0  
Year to date cooling degree days 0 0  
Moisture
Dew Point 31°F   
Average Humidity 96    
Maximum Humidity 100    
Minimum Humidity 92    
Precipitation
Precipitation 0.00 in in 0.14 in (2007)
Month to date precipitation 0.00  
Year to date precipitation 0.36  
Snow
Snow 0.00 in in in ()
Snow Depth 0.00 in   
Wind
Wind Speed 3 mph   
Max Wind Speed 9 mph   
Max Gust Speed 10 mph   
Visibility 3 miles   
Events Fog   

Key: T is trace of precipitation, MM is missing value
Source: NWS Daily Summary
Time(PST)TemperatureDew PointHumidity Pressure Visibility Wind DirectionWind SpeedGust SpeedPrecipitationEvents Conditions
12:04 AM 28.4°F 28.4°F 100% 30.30 in 0.2 miles Calm Calm - N/A Fog Light Freezing Fog
12:21 AM 26.6°F 26.6°F 100% 30.29 in 1.0 miles NE 3.5 mph - N/A   Mist
12:24 AM 26.6°F 26.6°F 100% 30.29 in 4.0 miles ENE 3.5 mph - N/A   Mostly Cloudy
12:33 AM 26.6°F 24.8°F 93% 30.30 in 7.0 miles North 5.8 mph - N/A   Scattered Clouds
12:53 AM 26.1°F 25.0°F 96% 30.30 in 9.0 miles East 3.5 mph - N/A   Clear
1:53 AM 27.0°F 26.1°F 96% 30.30 in 9.0 miles SE 3.5 mph - N/A   Clear
2:17 AM 28.4°F 26.6°F 93% 30.28 in 5.0 miles SE 6.9 mph - N/A   Scattered Clouds
2:21 AM 28.4°F 26.6°F 93% 30.28 in 0.8 miles SE 4.6 mph - N/A   Mist
2:25 AM 28.4°F 28.4°F 100% 30.29 in 0.2 miles SSE 4.6 mph - N/A Fog Light Freezing Fog
2:53 AM 30.0°F 28.9°F 96% 30.28 in 0.2 miles SE 4.6 mph - N/A Fog Light Freezing Fog
3:42 AM 28.4°F 28.4°F 100% 30.27 in 0.2 miles East 3.5 mph - N/A Fog Light Freezing Fog
3:53 AM 28.9°F 28.9°F 100% 30.28 in 0.2 miles SE 4.6 mph - N/A Fog Light Freezing Fog
4:53 AM 28.9°F 28.9°F 100% 30.26 in 0.2 miles ESE 3.5 mph - N/A Fog Light Freezing Fog
5:02 AM 28.4°F 28.4°F 100% 30.25 in 0.2 miles ESE 3.5 mph - N/A Fog Light Freezing Fog
5:31 AM 28.4°F 28.4°F 100% 30.25 in 0.2 miles Calm Calm - N/A Fog Light Freezing Fog
5:53 AM 28.9°F 28.0°F 96% 30.27 in 0.2 miles NNW 4.6 mph - N/A Fog Light Freezing Fog
6:37 AM 28.4°F 28.4°F 100% 30.26 in 0.2 miles Calm Calm - N/A Fog Light Freezing Fog
6:53 AM 28.9°F 28.9°F 100% 30.29 in 0.2 miles NW 3.5 mph - N/A Fog Light Freezing Fog
7:53 AM 30.0°F 28.9°F 96% 30.27 in 0.2 miles Calm Calm - N/A Fog Light Freezing Fog
8:53 AM 30.9°F 30.9°F 100% 30.29 in 0.2 miles Calm Calm - N/A Fog Light Freezing Fog
9:53 AM 32.0°F 30.9°F 96% 30.29 in 0.2 miles ESE 4.6 mph - N/A Fog Fog
10:53 AM 32.0°F 32.0°F 100% 30.30 in 0.8 miles Calm Calm - N/A   Overcast
11:53 AM 33.1°F 33.1°F 100% 30.27 in 1.2 miles Calm Calm - N/A   Overcast
12:53 PM 35.1°F 34.0°F 96% 30.25 in 1.2 miles Calm Calm - N/A   Overcast
1:53 PM 37.0°F 35.1°F 93% 30.22 in 1.8 miles Calm Calm - N/A   Overcast
2:53 PM 37.0°F 35.1°F 93% 30.22 in 1.2 miles NW 3.5 mph - N/A   Overcast
3:53 PM 37.0°F 35.1°F 93% 30.22 in 1.2 miles Calm Calm - N/A   Overcast
4:53 PM 36.0°F 35.1°F 97% 30.21 in 1.5 miles NW 5.8 mph - N/A   Overcast
5:53 PM 36.0°F 34.0°F 93% 30.22 in 1.5 miles WNW 5.8 mph - N/A   Overcast
6:53 PM 36.0°F 35.1°F 97% 30.22 in 1.5 miles West 4.6 mph - N/A   Overcast
7:53 PM 36.0°F 34.0°F 93% 30.21 in 7.0 miles Calm Calm - N/A   Overcast
8:34 PM 35.6°F 33.8°F 93% 30.20 in 7.0 miles NNW 3.5 mph - N/A   Overcast
8:53 PM 36.0°F 34.0°F 93% 30.22 in 7.0 miles Calm Calm - N/A   Overcast
9:53 PM 36.0°F 34.0°F 93% 30.20 in 7.0 miles Calm Calm - N/A   Overcast
10:48 PM 35.6°F 33.8°F 93% 30.18 in 7.0 miles East 3.5 mph - N/A   Overcast
10:53 PM 36.0°F 34.0°F 93% 30.19 in 6.0 miles Calm Calm - N/A   Overcast
11:53 PM 36.0°F 34.0°F 93% 30.19 in 6.0 miles ESE 4.6 mph - N/A   Overcast
Moon Phase
Feb. 03 Feb. 10 Feb. 17 Feb. 25 Mar. 04
Sunrise:07:16 AM (PST) Moon Rise:12:51 AM (PST)2/3
Sunset:05:04 PM (PST) Moon Set:10:43 AM (PST)2/3

Copyright © 2014 The Weather Underground, Inc.